[[{"header":{"parameterUnit":"m.s-1","parameterCategory":1,"la1":30.2991,"la2":30.254,"lo1":-89.0895,"lo2":-89.0444,"dy":0.0017,"dx":0.0017,"nx":28,"ny":28,"refTime":"2026-02-27T03:00:00:Z","depth":0,"parameterNumber":2,"parameterNumberName":"U-component_of_WINDS"},"data":[0,0,0,0,0,0,0,0,0,0,0,0,0,0,0,0,0,0,0,0,0,0,0,0,0,0,0,0,0,0,0,0,0,0,0,0,0,0,0,0,0,0,0,0,0,0,0,0,0,0,0,0,0,0,0,0,0,0,-1.2854,-1.2853,0,-1.2775,-1.2774,-1.2773,-1.2751,-1.2751,-1.2752,-1.2752,-1.2673,-1.267,-1.2668,0,0,0,0,0,0,0,0,0,0,0,0,0,-1.2989,-1.2986,-1.2854,-1.2853,-1.2852,-1.2775,-1.2774,-1.2773,-1.2751,-1.2751,-1.2752,-1.2752,-1.2674,-1.2671,-1.2668,0,0,0,0,0,0,0,0,0,0,0,0,0,-1.2922,-1.2986,-1.2854,-1.2832,-1.2829,-1.2776,-1.2774,-1.2773,-1.2751,-1.2751,-1.2752,-1.2753,-1.2675,-1.2671,-1.2667,-1.2631,0,0,-1.2656,-1.2654,0,0,0,0,0,0,0,0,-1.2926,-1.2917,-1.2836,-1.2833,-1.283,-1.2774,-1.2793,-1.2725,-1.2751,-1.278,-1.2752,-1.2753,-1.2706,-1.27,-1.2684,-1.2628,-1.2624,-1.2656,-1.2653,-1.2652,-1.2651,0,0,0,0,0,0,0,-1.2931,-1.2921,-1.2823,-1.2835,-1.2831,-1.2827,-1.2818,-1.278,-1.2741,-1.2778,-1.2776,-1.2767,-1.2704,-1.2687,-1.2682,-1.2623,-1.2656,-1.2652,-1.265,-1.2648,-1.2538,-1.2537,0,0,0,0,0,0,-1.2939,-1.2925,-1.2825,-1.282,-1.288,-1.2824,-1.2814,-1.2791,-1.2741,-1.2734,-1.2767,-1.2766,-1.2693,-1.2686,-1.2679,-1.2635,-1.2652,-1.2648,-1.2646,-1.2539,-1.2538,-1.2537,0,0,0,0,0,0,-1.2942,-1.293,-1.2828,-1.2872,-1.2859,-1.2821,-1.2795,-1.2789,-1.2772,-1.2732,-1.2726,-1.2756,-1.2694,-1.2684,-1.2644,-1.2632,-1.2646,-1.2643,-1.2539,-1.2538,-1.2537,-1.2547,0,0,0,0,0,0,-1.2946,-1.2931,-1.2916,-1.2872,-1.2856,-1.2794,-1.2794,-1.2787,-1.2765,-1.2764,-1.2721,-1.2714,-1.2693,-1.265,-1.264,-1.2627,-1.264,-1.254,-1.2539,-1.2538,-1.2547,-1.2546,-1.2545,0,0,0,0,0,-1.2951,-1.2921,-1.2915,-1.2903,-1.2836,-1.2793,-1.2784,-1.2761,-1.2764,-1.2749,-1.2725,-1.2715,-1.2635,-1.2646,-1.2635,-1.262,-1.2541,-1.2539,-1.2538,-1.2548,-1.2546,-1.2545,0,0,0,0,0,0,-1.2963,-1.2914,-1.2907,-1.2862,-1.2832,-1.2789,-1.2769,-1.276,-1.2728,-1.2728,-1.2701,-1.2691,-1.2654,-1.2633,-1.2646,-1.2585,-1.2588,-1.2584,-1.2599,-1.2598,-1.2597,-1.2602,-1.2637,0,0,0,0,0,-1.2961,-1.2929,-1.2889,-1.2853,-1.2838,-1.2807,-1.2787,-1.2772,-1.274,-1.2727,-1.2699,-1.2669,-1.2637,-1.2616,-1.2585,-1.2545,-1.2537,-1.253,-1.2529,-1.2529,-1.2525,-1.2506,-1.2503,-1.2532,-1.2532,-1.2532,0,0,-1.2956,-1.2925,-1.2906,-1.2855,-1.283,-1.2799,-1.2796,-1.2762,-1.274,-1.2722,-1.2682,-1.2662,-1.2626,-1.2587,-1.2569,-1.2569,-1.2516,-1.2527,-1.2526,-1.2523,-1.2504,-1.2501,-1.2499,-1.2531,-1.2531,-1.2531,0,0,-1.293,-1.2903,-1.2872,-1.2848,-1.281,-1.279,-1.2783,-1.2742,-1.2728,-1.2689,-1.2675,-1.2649,-1.2594,-1.2571,-1.2551,-1.2523,-1.2513,-1.2513,-1.2507,-1.2489,-1.2486,-1.2484,-1.2475,-1.2472,-1.2511,-1.2511,-1.2511,0,-1.2928,-1.288,-1.2857,-1.2825,-1.2804,-1.2788,-1.2758,-1.2735,-1.2689,-1.2676,-1.2677,-1.2611,-1.2586,-1.2542,-1.2536,-1.252,-1.2513,-1.2517,-1.2488,-1.2486,-1.2484,-1.2475,-1.2472,-1.2511,-1.2511,-1.2511,-1.2511,0,-1.2881,-1.2848,-1.2828,-1.2785,-1.2762,-1.2731,-1.2705,-1.2685,-1.2673,-1.2654,-1.2616,-1.2586,-1.255,-1.2539,-1.2526,-1.2495,-1.2496,-1.2494,-1.2496,-1.2482,-1.2473,-1.247,-1.2511,-1.2511,-1.2511,-1.2511,0,0,-1.2857,-1.2805,-1.2798,-1.278,-1.274,-1.2715,-1.2685,-1.265,-1.2634,-1.2605,-1.258,-1.2537,-1.2535,-1.2513,-1.2499,-1.2483,-1.2465,-1.2482,-1.2481,-1.2481,-1.243,-1.2433,-1.2429,-1.2459,-1.2458,-1.2458,-1.2434,0,-1.2827,-1.2772,-1.2752,-1.2708,-1.2679,-1.2666,-1.264,-1.2614,-1.2596,-1.257,-1.2551,-1.2521,-1.2521,-1.2508,-1.2491,-1.247,-1.2454,-1.2472,-1.2437,-1.2436,-1.2446,-1.2424,-1.2425,-1.2404,-1.243,-1.2429,-1.2429,0,-1.2783,-1.2754,-1.2707,-1.2674,-1.2661,-1.2638,-1.2607,-1.2582,-1.2553,-1.2542,-1.252,-1.2508,-1.2479,-1.2484,-1.2445,-1.2457,-1.2443,-1.2431,-1.243,-1.2425,-1.2431,-1.2419,-1.2396,-1.2393,-1.2423,-1.2424,-1.2424,0,-1.2772,-1.2722,-1.2688,-1.2673,-1.2633,-1.2618,-1.2601,-1.2573,-1.2554,-1.2527,-1.2515,-1.2486,-1.2469,-1.2447,-1.2428,-1.2434,-1.2392,-1.2395,-1.2382,-1.2383,-1.2373,-1.2373,-1.2347,-1.2364,-1.2364,-1.2364,-1.2364,0,-1.274,-1.2712,-1.2683,-1.2662,-1.2631,-1.2611,-1.2581,-1.2564,-1.254,-1.2517,-1.2504,-1.2483,-1.2459,-1.2436,-1.2421,-1.2392,-1.2384,-1.2375,-1.2372,-1.2376,-1.2378,-1.2365,-1.2367,-1.2363,-1.2363,-1.2363,-1.2363,0,-1.2722,-1.2701,-1.2663,-1.263,-1.2621,-1.26,-1.2573,-1.2553,-1.2537,-1.2508,-1.25,-1.2474,-1.2446,-1.2426,-1.2389,-1.238,-1.2349,-1.2345,-1.2358,-1.2356,-1.2345,-1.2347,-1.231,-1.2305,-1.2325,-1.2325,-1.2325,0,-1.2702,-1.2681,-1.2646,-1.263,-1.2613,-1.2587,-1.2569,-1.255,-1.2532,-1.25,-1.2485,-1.2457,-1.2432,-1.2389,-1.2367,-1.2341,-1.2336,-1.2326,-1.2332,-1.2338,-1.2337,-1.2339,-1.2337,-1.2324,-1.2324,-1.2324,-1.2324,0,-1.2671,-1.2663,-1.2637,-1.2609,-1.2588,-1.2564,-1.2541,-1.2529,-1.2506,-1.2487,-1.2458,-1.244,-1.2404,-1.2377,-1.2349,-1.2333,-1.2325,-1.2323,-1.2318,-1.2322,-1.2331,-1.2327,-1.2356,-1.2323,-1.2323,-1.2323,-1.2323,-1.2323,-1.2652,-1.2633,-1.2607,-1.258,-1.2561,-1.254,-1.2521,-1.2504,-1.2479,-1.2449,-1.244,-1.2411,-1.2387,-1.2349,-1.2333,-1.2311,-1.2312,-1.2305,-1.2304,-1.2302,-1.2303,-1.2336,-1.2306,-1.2306,-1.2306,-1.2306,-1.2306,0,-1.262,-1.2604,-1.2579,-1.2548,-1.2528,-1.2523,-1.2499,-1.2482,-1.2457,-1.2435,-1.2412,-1.2382,-1.2356,-1.2335,-1.2309,-1.2296,-1.2292,-1.229,-1.229,-1.2287,-1.2304,-1.231,-1.2293,-1.2293,-1.2293,-1.2293,-1.2293,-1.2293,-1.2601,-1.2571,-1.256,-1.2521,-1.2505,-1.2477,-1.2464,-1.2446,-1.2429,-1.2395,-1.2374,-1.236,-1.234,-1.2313,-1.229,-1.2285,-1.2276,-1.2275,-1.2268,-1.2284,-1.2285,-1.2287,-1.2293,-1.2273,-1.2273,-1.2254,-1.2253,-1.2253]},{"header":{"parameterUnit":"m.s-1","parameterCategory":1,"la1":30.2991,"la2":30.254,"lo1":-89.0895,"lo2":-89.0444,"dy":0.0017,"dx":0.0017,"nx":28,"ny":28,"refTime":"2026-02-27T03:00:00:Z","depth":0,"parameterNumber":3,"parameterNumberName":"V-component_of_WINDS"},"data":[0,0,0,0,0,0,0,0,0,0,0,0,0,0,0,0,0,0,0,0,0,0,0,0,0,0,0,0,0,0,0,0,0,0,0,0,0,0,0,0,0,0,0,0,0,0,0,0,0,0,0,0,0,0,0,0,0,0,1.5864,1.5863,0,1.5845,1.5845,1.5844,1.5867,1.5868,1.5869,1.587,1.5843,1.5842,1.584,0,0,0,0,0,0,0,0,0,0,0,0,0,1.5912,1.5911,1.5864,1.5863,1.5863,1.5845,1.5845,1.5844,1.5867,1.5868,1.5869,1.587,1.5844,1.5842,1.584,0,0,0,0,0,0,0,0,0,0,0,0,0,1.5892,1.5911,1.5864,1.5873,1.5873,1.5845,1.5845,1.5844,1.5867,1.5868,1.5869,1.5871,1.5844,1.5842,1.584,1.58,0,0,1.5833,1.5832,0,0,0,0,0,0,0,0,1.5893,1.589,1.5871,1.5872,1.5873,1.586,1.5852,1.5829,1.5867,1.5869,1.587,1.5871,1.5847,1.5845,1.5838,1.5799,1.5797,1.5833,1.5831,1.583,1.583,0,0,0,0,0,0,0,1.5894,1.5891,1.5856,1.5871,1.5872,1.5875,1.5874,1.5848,1.5851,1.5869,1.5871,1.5868,1.5848,1.584,1.5838,1.5797,1.5833,1.5831,1.5829,1.5828,1.5721,1.5719,0,0,0,0,0,0,1.5896,1.5892,1.5857,1.5855,1.5886,1.5873,1.5872,1.5862,1.5851,1.5851,1.5867,1.587,1.5844,1.584,1.5837,1.5787,1.583,1.5828,1.5827,1.5722,1.572,1.5719,0,0,0,0,0,0,1.5897,1.5892,1.5857,1.5874,1.587,1.5871,1.5861,1.5861,1.5854,1.585,1.585,1.586,1.5844,1.584,1.5809,1.5786,1.5827,1.5825,1.5724,1.5722,1.5719,1.5688,0,0,0,0,0,0,1.5898,1.5893,1.5879,1.5874,1.5869,1.5832,1.5859,1.586,1.5851,1.5854,1.5843,1.5842,1.5845,1.5812,1.5806,1.5784,1.5823,1.5726,1.5723,1.572,1.5691,1.5685,1.568,0,0,0,0,0,1.59,1.587,1.5878,1.5874,1.5853,1.583,1.5827,1.5833,1.5849,1.5834,1.5831,1.5843,1.5791,1.5809,1.5803,1.5779,1.5727,1.5724,1.572,1.5694,1.5686,1.568,0,0,0,0,0,0,1.587,1.5869,1.5879,1.5847,1.5839,1.5834,1.5816,1.5826,1.5811,1.5814,1.582,1.5817,1.5784,1.5779,1.5799,1.5738,1.5761,1.5756,1.5743,1.5736,1.573,1.5731,1.5821,0,0,0,0,0,1.5861,1.5845,1.5844,1.5816,1.5812,1.5815,1.5805,1.5811,1.5802,1.5797,1.5793,1.5781,1.5762,1.5749,1.5731,1.5692,1.5687,1.5672,1.5667,1.5662,1.5657,1.5632,1.5625,1.5708,1.5708,1.5708,0,0,1.5839,1.5837,1.5826,1.581,1.5805,1.5785,1.5811,1.5791,1.5776,1.5794,1.5764,1.576,1.5747,1.5711,1.5694,1.5705,1.5634,1.5658,1.5654,1.5651,1.5628,1.562,1.5613,1.5705,1.5706,1.5706,0,0,1.579,1.5788,1.5764,1.5758,1.575,1.5752,1.5746,1.574,1.5739,1.571,1.5722,1.5703,1.5671,1.5661,1.5652,1.5599,1.5607,1.5593,1.5562,1.5539,1.5532,1.5526,1.5504,1.5497,1.5588,1.5588,1.5588,0,1.5764,1.5738,1.5749,1.5728,1.5719,1.5737,1.571,1.5703,1.5689,1.5681,1.5695,1.5654,1.5647,1.5607,1.5594,1.5587,1.5577,1.5593,1.5533,1.5527,1.5522,1.5501,1.5493,1.5586,1.5587,1.5587,1.5587,0,1.5705,1.5687,1.5668,1.5655,1.5645,1.5621,1.5625,1.5613,1.562,1.5619,1.5588,1.558,1.556,1.5552,1.5557,1.5512,1.5519,1.5533,1.5555,1.5512,1.5492,1.5484,1.5584,1.5584,1.5585,1.5585,0,0,1.5635,1.563,1.5622,1.5616,1.5609,1.5594,1.557,1.5553,1.554,1.553,1.5507,1.548,1.5492,1.5481,1.5486,1.5466,1.542,1.5481,1.5481,1.5467,1.5366,1.5354,1.5345,1.5427,1.5426,1.5425,1.5366,0,1.5584,1.5544,1.5553,1.5513,1.5495,1.5512,1.549,1.5482,1.5481,1.5463,1.5462,1.5441,1.546,1.5454,1.5435,1.543,1.54,1.5435,1.5403,1.5401,1.5402,1.5335,1.5322,1.5267,1.5359,1.5358,1.5357,0,1.5519,1.5508,1.5466,1.5461,1.5453,1.5434,1.5418,1.5403,1.5392,1.5393,1.5381,1.5389,1.5362,1.5387,1.5347,1.5371,1.5359,1.5354,1.5352,1.5347,1.5374,1.5324,1.525,1.524,1.5345,1.5346,1.5347,0,1.5468,1.5443,1.5415,1.5409,1.5403,1.5388,1.5385,1.5376,1.5365,1.5351,1.5343,1.5324,1.5313,1.5298,1.5299,1.5318,1.5258,1.5284,1.5254,1.5254,1.5238,1.5239,1.5157,1.5235,1.5236,1.5236,1.5236,0,1.5408,1.5381,1.5392,1.5374,1.5343,1.5353,1.5322,1.532,1.5312,1.5292,1.5305,1.5285,1.5291,1.527,1.5271,1.5236,1.5232,1.5228,1.5228,1.5226,1.5225,1.5215,1.5217,1.5234,1.5234,1.5234,1.5235,0,1.5345,1.5352,1.5321,1.5319,1.5317,1.5294,1.529,1.5272,1.5273,1.5247,1.5241,1.5241,1.5218,1.5219,1.5191,1.5192,1.5148,1.5154,1.5152,1.5152,1.5121,1.5123,1.5028,1.5014,1.5104,1.5103,1.5103,0,1.5305,1.5285,1.5281,1.527,1.5265,1.5247,1.5236,1.5245,1.5232,1.5219,1.5201,1.5179,1.5162,1.5122,1.5118,1.5096,1.51,1.5068,1.5096,1.5093,1.5095,1.5095,1.5091,1.5061,1.506,1.5059,1.5059,0,1.5232,1.5237,1.5222,1.5207,1.5195,1.5183,1.5173,1.5162,1.5169,1.5154,1.5131,1.5118,1.5091,1.5067,1.5047,1.5039,1.5048,1.5051,1.5042,1.5037,1.5035,1.5032,1.5133,1.5052,1.5052,1.5053,1.5053,1.5054,1.5177,1.516,1.5154,1.5136,1.513,1.512,1.5102,1.5102,1.5084,1.5064,1.507,1.5043,1.5031,1.5005,1.4996,1.4973,1.4983,1.4972,1.4968,1.4964,1.4959,1.5042,1.4969,1.4969,1.497,1.497,1.497,0,1.5102,1.51,1.5084,1.507,1.5055,1.507,1.5059,1.5044,1.5022,1.5012,1.4995,1.4967,1.4945,1.4939,1.4916,1.4899,1.4902,1.4892,1.4891,1.4889,1.4953,1.4961,1.4889,1.4889,1.4889,1.4889,1.4889,1.489,1.5061,1.5032,1.5035,1.5001,1.4998,1.4974,1.4966,1.4956,1.4948,1.4917,1.4899,1.4897,1.4887,1.4864,1.4843,1.4842,1.4831,1.4818,1.4818,1.4877,1.4885,1.4892,1.49,1.4817,1.4817,1.4756,1.4755,1.4755]}]]